Regional Weather Roundup
Issued by NWS Sioux Falls, SD

Home | Current Version | Previous Version | Text Only | Print | Product List | Glossary On
Versions: 1 2 3 4 5 6 7 8 9 10 11 12 13 14 15 16 17 18 19 20 21 22 23 24 25 26 27 28 29 30 31 32 33 34 35 36 37 38 39 40 41 42 43 44 45 46 47 48 49 50
000
ASUS43 KFSD 260610
RWRFSD

WEATHER ROUNDUP FOR SE SOUTH DAKOTA/SW MINNESOTA/NW IOWA
NATIONAL WEATHER SERVICE SIOUX FALLS SD
1200 AM CST SUN FEB 26 2017

NOTE: "FAIR" INDICATES FEW OR NO CLOUDS BELOW 12,000 FEET WITH NO
SIGNIFICANT WEATHER AND OR OBSTRUCTIONS TO VISIBILITY.


SDZ038>040-050-052>070-260700-
SOUTHEAST SOUTH DAKOTA

CITY           SKY/WX    TMP DP  RH WIND       PRES   REMARKS
BROOKINGS      CLEAR     23  19  85 SW9       29.73F WCI  13
CHAMBERLAIN    CLOUDY    28  25  87 SW6       29.75S WCI  22
6HR MIN TEMP:  28; 6HR MAX TEMP:  37;

HURON          CLEAR     23  23 100 MISG      29.75F
6HR MIN TEMP:  23; 6HR MAX TEMP:  33; 6HR PCP: TRACE;

MADISON        FAIR      23  23 100 SW12      29.74F WCI  12
MITCHELL       MOCLDY    26  21  81 SW8       29.77F WCI  18
6HR MIN TEMP:  26; 6HR MAX TEMP:  30;

SIOUX FALLS    PTCLDY    23  18  81 SW5       29.78F WCI  17
6HR MIN TEMP:  22; 6HR MAX TEMP:  27;

WINNER         FAIR      24  15  68 SW10      29.75F WCI  14
YANKTON        PTCLDY    19  18  93 NE3       29.80F
$$

MNZ071-072-080-081-089-090-097-098-260700-
SOUTHWEST MINNESOTA

CITY           SKY/WX    TMP DP  RH WIND       PRES   REMARKS
FAIRMONT       MOCLDY    19  15  84 S9        29.82F WCI   8
JACKSON        PTCLDY    19  14  79 S10       29.79F WCI   8
LUVERNE        CLEAR     19  16  86 S5        29.78F WCI  13
MARSHALL       CLOUDY    26  20  77 SW15G22   29.74F WCI  14
6HR MIN TEMP:  26; 6HR MAX TEMP:  30;

MONTEVIDEO     CLOUDY    27  21  80 W8        29.75F WCI  18
PIPESTONE      CLEAR     21  18  86 SW8       29.74F WCI  12
REDWOOD FALLS  CLOUDY    27  19  72 SW14      29.76F WCI  16
TRACY          CLOUDY    26  21  81 SW17      29.75F WCI  13
WINDOM         CLOUDY    23  18  80 S12       29.77F WCI  12
WORTHINGTON    PTCLDY    20  16  84 SW14      29.78F WCI   7
$$

IAZ001>003-012>014-020>022-031-032-NEZ013-014-SDZ071-260700-
NORTHWEST IOWA

CITY           SKY/WX    TMP DP  RH WIND       PRES   REMARKS
CHEROKEE       CLOUDY    22  17  82 S7        29.83F WCI  13
DENISON        PTCLDY    25  19  80 SW7       29.84F WCI  17
ESTHERVILLE    PTCLDY    16  13  88 SW8       29.81F WCI   5
LE MARS        CLOUDY    23  18  80 S5        29.83F WCI  17
SHELDON        CLOUDY    23  23 100 SW10      29.79F WCI  12
SIOUX CITY     CLOUDY    21  16  81 E7        29.83F WCI  12
6HR MIN TEMP:  19; 6HR MAX TEMP:  28;

SPENCER        PTCLDY    14  11  87 S5        29.82F WCI   6
6HR MIN TEMP:  14; 6HR MAX TEMP:  24;

STORM LAKE     CLOUDY    21  18  86 S9        29.83F WCI  11
$$

ABBREVIATIONS USED IN REMARKS
   TC - TEMPERATURE IN CELSIUS
  WCI - WIND CHILL INDEX
   HX - HEAT INDEX
  VSB - VISIBILITY




USA.gov is the U.S. government's official web portal to all federal, state and local government web resources and services.